[[{"header":{"parameterUnit":"m.s-1","parameterCategory":1,"la1":30.2991,"la2":30.254,"lo1":-89.0895,"lo2":-89.0444,"dy":0.0017,"dx":0.0017,"nx":28,"ny":28,"refTime":"2023-11-03T09:00:00:Z","depth":0,"parameterNumber":2,"parameterNumberName":"U-component_of_WINDS"},"data":[0,0,0,0,0,0,0,0,0,0,0,0,0,0,0,0,0,0,0,0,0,0,0,0,0,0,0,0,0,0,0,0,0,0,0,0,0,0,0,0,0,0,0,0,0,0,0,0,0,0,0,0,0,0,0,0,0,0,-2.8821,-2.882,0,-2.8793,-2.8793,-2.8793,-2.8688,-2.8685,-2.8683,-2.8681,-2.8655,-2.8656,-2.8658,0,0,0,0,0,0,0,0,0,0,0,0,0,-2.8784,-2.8785,-2.8821,-2.882,-2.882,-2.8793,-2.8793,-2.8793,-2.8688,-2.8685,-2.8682,-2.868,-2.8654,-2.8656,-2.8658,0,0,0,0,0,0,0,0,0,0,0,0,0,-2.8783,-2.8786,-2.8821,-2.8765,-2.8759,-2.8793,-2.8793,-2.8792,-2.8689,-2.8685,-2.8682,-2.8678,-2.8654,-2.8656,-2.8658,-2.8745,0,0,-2.8665,-2.8666,0,0,0,0,0,0,0,0,-2.8783,-2.8784,-2.8773,-2.8769,-2.8763,-2.874,-2.877,-2.8776,-2.869,-2.8716,-2.8681,-2.8677,-2.8686,-2.8686,-2.8688,-2.8743,-2.8742,-2.8665,-2.8667,-2.8668,-2.8668,0,0,0,0,0,0,0,-2.8783,-2.8785,-2.881,-2.8773,-2.8767,-2.8741,-2.8737,-2.8771,-2.8722,-2.8713,-2.8706,-2.8704,-2.8683,-2.8686,-2.8687,-2.8742,-2.8665,-2.8667,-2.8669,-2.867,-2.8868,-2.8872,0,0,0,0,0,0,-2.8791,-2.8786,-2.8811,-2.8809,-2.8764,-2.8745,-2.874,-2.8751,-2.8721,-2.8713,-2.8707,-2.8699,-2.8684,-2.8684,-2.8686,-2.8786,-2.8668,-2.867,-2.8671,-2.8864,-2.8869,-2.8873,0,0,0,0,0,0,-2.8791,-2.8794,-2.8812,-2.8795,-2.8795,-2.875,-2.8762,-2.8752,-2.8756,-2.8716,-2.8707,-2.872,-2.8681,-2.8682,-2.8731,-2.8784,-2.8671,-2.8673,-2.886,-2.8866,-2.8871,-2.8988,0,0,0,0,0,0,-2.879,-2.8795,-2.8827,-2.8797,-2.8797,-2.8857,-2.8766,-2.8755,-2.876,-2.875,-2.8726,-2.8718,-2.8679,-2.8728,-2.8733,-2.8785,-2.8675,-2.8855,-2.8862,-2.8869,-2.8979,-2.8997,-2.9012,0,0,0,0,0,-2.8789,-2.8861,-2.8829,-2.8832,-2.8836,-2.886,-2.886,-2.8813,-2.8765,-2.8797,-2.8771,-2.8719,-2.8777,-2.8734,-2.8739,-2.8792,-2.8851,-2.886,-2.8869,-2.8972,-2.8993,-2.9012,0,0,0,0,0,0,-2.8898,-2.8856,-2.882,-2.8884,-2.8877,-2.8843,-2.8882,-2.8837,-2.8844,-2.8834,-2.8775,-2.877,-2.8828,-2.8814,-2.8767,-2.8875,-2.8805,-2.8816,-2.8882,-2.8902,-2.8919,-2.8921,-2.8677,0,0,0,0,0,-2.893,-2.8953,-2.8914,-2.8974,-2.8972,-2.8928,-2.8937,-2.8901,-2.8891,-2.8888,-2.8866,-2.8859,-2.8876,-2.8888,-2.8901,-2.8976,-2.897,-2.9015,-2.9032,-2.9046,-2.9056,-2.9096,-2.9117,-2.8902,-2.8902,-2.8902,0,0,-2.8995,-2.8974,-2.8993,-2.8996,-2.8986,-2.9012,-2.8926,-2.8957,-2.8976,-2.8893,-2.8938,-2.8921,-2.891,-2.8973,-2.8999,-2.8963,-2.9114,-2.9057,-2.9068,-2.9071,-2.9108,-2.9128,-2.9146,-2.8908,-2.8907,-2.8906,0,0,-2.9127,-2.9114,-2.9163,-2.9155,-2.9141,-2.9111,-2.9123,-2.9096,-2.9082,-2.9126,-2.9065,-2.9087,-2.9116,-2.9111,-2.9113,-2.9245,-2.9198,-2.9251,-2.9338,-2.9378,-2.9395,-2.941,-2.9459,-2.9477,-2.926,-2.9261,-2.9261,0,-2.921,-2.9247,-2.9194,-2.9229,-2.9233,-2.9158,-2.9209,-2.9204,-2.9195,-2.92,-2.916,-2.9196,-2.9183,-2.9245,-2.9277,-2.928,-2.9293,-2.9254,-2.9397,-2.9411,-2.9424,-2.947,-2.9489,-2.9267,-2.9267,-2.9266,-2.9265,0,-2.935,-2.9377,-2.9418,-2.9412,-2.9421,-2.9463,-2.9418,-2.9433,-2.9396,-2.9371,-2.9418,-2.94,-2.9409,-2.942,-2.9385,-2.9477,-2.9456,-2.9407,-2.9336,-2.9452,-2.9495,-2.9512,-2.9277,-2.9275,-2.9273,-2.9271,0,0,-2.9551,-2.9516,-2.9532,-2.9529,-2.9509,-2.9529,-2.9569,-2.9577,-2.9592,-2.9589,-2.9622,-2.9649,-2.9604,-2.9606,-2.9569,-2.9605,-2.9713,-2.9552,-2.955,-2.9584,-2.9816,-2.9854,-2.9875,-2.9681,-2.9684,-2.9686,-2.9818,0,-2.9679,-2.9744,-2.9699,-2.9773,-2.9797,-2.9727,-2.9762,-2.9754,-2.9732,-2.975,-2.9725,-2.9747,-2.9685,-2.9686,-2.9717,-2.9693,-2.9759,-2.9683,-2.9713,-2.9715,-2.972,-2.9897,-2.9937,-3.0062,-2.9834,-2.9836,-2.9838,0,-2.9836,-2.9841,-2.9917,-2.9894,-2.9902,-2.9934,-2.9939,-2.9957,-2.9947,-2.9929,-2.9931,-2.9886,-2.9925,-2.9854,-2.9908,-2.9857,-2.9866,-2.9856,-2.986,-2.9862,-2.9785,-2.9906,-3.01,-3.012,-2.9864,-2.9862,-2.986,0,-2.9977,-3.0002,-3.0052,-3.0051,-3.0024,-3.0049,-3.0039,-3.0025,-3.0034,-3.0038,-3.0043,-3.0052,-3.0058,-3.0066,-3.0025,-2.9977,-3.0085,-3.001,-3.0072,-3.0074,-3.0099,-3.0098,-3.03,-3.0103,-3.0102,-3.0102,-3.0102,0,-3.0126,-3.0176,-3.0115,-3.0146,-3.02,-3.0147,-3.0203,-3.0185,-3.0174,-3.0201,-3.014,-3.0167,-3.011,-3.0132,-3.01,-3.015,-3.0153,-3.014,-3.0131,-3.0146,-3.0149,-3.0153,-3.0144,-3.0107,-3.0106,-3.0105,-3.0104,0,-3.0293,-3.0254,-3.0304,-3.0274,-3.0268,-3.031,-3.0285,-3.0313,-3.0286,-3.0321,-3.0327,-3.0286,-3.0308,-3.0267,-3.0284,-3.0263,-3.0334,-3.0311,-3.0338,-3.0332,-3.0396,-3.0392,-3.0609,-3.0636,-3.042,-3.0422,-3.0424,0,-3.0391,-3.0428,-3.0403,-3.0416,-3.041,-3.0432,-3.0441,-3.039,-3.0402,-3.0394,-3.0424,-3.0441,-3.0452,-3.049,-3.0463,-3.0476,-3.0454,-3.0529,-3.0455,-3.047,-3.0457,-3.0457,-3.0461,-3.0545,-3.0548,-3.055,-3.0551,0,-3.057,-3.0549,-3.0563,-3.0572,-3.0584,-3.0588,-3.0588,-3.0603,-3.0549,-3.0566,-3.0587,-3.0596,-3.0614,-3.0632,-3.0639,-3.0629,-3.0583,-3.0575,-3.059,-3.0607,-3.0622,-3.0617,-3.0381,-3.057,-3.0568,-3.0567,-3.0566,-3.0565,-3.0706,-3.0737,-3.0724,-3.0743,-3.0738,-3.074,-3.0765,-3.0742,-3.0759,-3.0769,-3.0738,-3.0768,-3.0758,-3.0762,-3.0758,-3.0781,-3.0748,-3.077,-3.0776,-3.0782,-3.0794,-3.0617,-3.0782,-3.0781,-3.0781,-3.078,-3.078,0,-3.0884,-3.0872,-3.089,-3.0892,-3.0908,-3.0861,-3.0859,-3.0875,-3.0902,-3.0897,-3.0909,-3.0935,-3.0953,-3.0927,-3.0941,-3.0965,-3.0944,-3.097,-3.0969,-3.0968,-3.0822,-3.0808,-3.0987,-3.0987,-3.0987,-3.0987,-3.0987,-3.0987,-3.0978,-3.1028,-3.1006,-3.1053,-3.1041,-3.1069,-3.1072,-3.1074,-3.107,-3.1102,-3.1116,-3.1099,-3.1086,-3.1099,-3.1114,-3.1106,-3.1114,-3.1149,-3.1134,-3.0998,-3.0978,-3.0959,-3.0946,-3.1151,-3.1151,-3.1279,-3.128,-3.1281]},{"header":{"parameterUnit":"m.s-1","parameterCategory":1,"la1":30.2991,"la2":30.254,"lo1":-89.0895,"lo2":-89.0444,"dy":0.0017,"dx":0.0017,"nx":28,"ny":28,"refTime":"2023-11-03T09:00:00:Z","depth":0,"parameterNumber":3,"parameterNumberName":"V-component_of_WINDS"},"data":[0,0,0,0,0,0,0,0,0,0,0,0,0,0,0,0,0,0,0,0,0,0,0,0,0,0,0,0,0,0,0,0,0,0,0,0,0,0,0,0,0,0,0,0,0,0,0,0,0,0,0,0,0,0,0,0,0,0,-1.7554,-1.7555,0,-1.7599,-1.7599,-1.76,-1.757,-1.7568,-1.7567,-1.7566,-1.761,-1.7612,-1.7615,0,0,0,0,0,0,0,0,0,0,0,0,0,-1.7442,-1.7444,-1.7554,-1.7555,-1.7555,-1.7598,-1.7599,-1.76,-1.757,-1.7568,-1.7567,-1.7565,-1.7609,-1.7612,-1.7615,0,0,0,0,0,0,0,0,0,0,0,0,0,-1.7489,-1.7445,-1.7554,-1.7546,-1.7545,-1.7598,-1.7599,-1.76,-1.757,-1.7568,-1.7566,-1.7564,-1.7608,-1.7612,-1.7615,-1.7679,0,0,-1.7627,-1.7628,0,0,0,0,0,0,0,0,-1.7486,-1.7493,-1.7546,-1.7546,-1.7546,-1.7577,-1.7576,-1.7626,-1.7571,-1.7561,-1.7566,-1.7563,-1.76,-1.7605,-1.7617,-1.7681,-1.7683,-1.7627,-1.7629,-1.7631,-1.7632,0,0,0,0,0,0,0,-1.7483,-1.7491,-1.7572,-1.7547,-1.7547,-1.7539,-1.7544,-1.7585,-1.7591,-1.7562,-1.756,-1.7565,-1.76,-1.7614,-1.7618,-1.7683,-1.7627,-1.763,-1.7632,-1.7634,-1.7802,-1.7804,0,0,0,0,0,0,-1.7481,-1.7489,-1.757,-1.7573,-1.7511,-1.7543,-1.7548,-1.7569,-1.7591,-1.7592,-1.7567,-1.7564,-1.7609,-1.7614,-1.762,-1.7697,-1.7631,-1.7634,-1.7636,-1.78,-1.7802,-1.7805,0,0,0,0,0,0,-1.7479,-1.7488,-1.7568,-1.753,-1.754,-1.7547,-1.7571,-1.7571,-1.7585,-1.7595,-1.7596,-1.758,-1.7607,-1.7615,-1.7665,-1.7698,-1.7636,-1.7639,-1.7797,-1.78,-1.7804,-1.7851,0,0,0,0,0,0,-1.7476,-1.7488,-1.7513,-1.7531,-1.7542,-1.7613,-1.7573,-1.7573,-1.7591,-1.7588,-1.7608,-1.7609,-1.7606,-1.7659,-1.7668,-1.7702,-1.7642,-1.7794,-1.7798,-1.7802,-1.7846,-1.7855,-1.7863,0,0,0,0,0,-1.7472,-1.7524,-1.7514,-1.7524,-1.7573,-1.7615,-1.7622,-1.7618,-1.7594,-1.7619,-1.7625,-1.7608,-1.7692,-1.7665,-1.7675,-1.771,-1.7792,-1.7797,-1.7802,-1.7843,-1.7854,-1.7863,0,0,0,0,0,0,-1.7508,-1.7526,-1.7515,-1.7575,-1.7594,-1.761,-1.7642,-1.7629,-1.7655,-1.7651,-1.7644,-1.7649,-1.7702,-1.771,-1.7679,-1.7772,-1.7738,-1.7746,-1.7766,-1.7776,-1.7784,-1.7783,-1.7645,0,0,0,0,0,-1.7523,-1.7557,-1.757,-1.7621,-1.7631,-1.7635,-1.7653,-1.7648,-1.7667,-1.7675,-1.7685,-1.7704,-1.7735,-1.7755,-1.7784,-1.7846,-1.7851,-1.7875,-1.7883,-1.789,-1.7898,-1.7932,-1.7944,-1.7821,-1.7821,-1.7821,0,0,-1.7555,-1.7568,-1.759,-1.7629,-1.7643,-1.7678,-1.7642,-1.768,-1.7706,-1.7681,-1.773,-1.7737,-1.7758,-1.7815,-1.784,-1.7824,-1.7932,-1.7897,-1.7902,-1.7906,-1.7939,-1.795,-1.7961,-1.7825,-1.7824,-1.7824,0,0,-1.7631,-1.7644,-1.7689,-1.7704,-1.7726,-1.7728,-1.7738,-1.7756,-1.7761,-1.781,-1.7792,-1.7822,-1.7874,-1.789,-1.7905,-1.7986,-1.7972,-1.7995,-1.804,-1.8074,-1.8084,-1.8093,-1.8123,-1.8134,-1.8002,-1.8002,-1.8002,0,-1.7668,-1.772,-1.7713,-1.7753,-1.7771,-1.775,-1.7796,-1.781,-1.784,-1.7853,-1.7833,-1.7899,-1.7911,-1.7973,-1.7992,-1.8004,-1.8017,-1.7995,-1.8083,-1.8092,-1.8099,-1.8129,-1.814,-1.8005,-1.8004,-1.8004,-1.8004,0,-1.7765,-1.7801,-1.7834,-1.7865,-1.7886,-1.7928,-1.7928,-1.795,-1.7943,-1.7946,-1.7996,-1.801,-1.8042,-1.8055,-1.8048,-1.8115,-1.8104,-1.8084,-1.805,-1.8114,-1.8142,-1.8153,-1.8009,-1.8008,-1.8007,-1.8006,0,0,-1.7868,-1.7893,-1.7906,-1.792,-1.7942,-1.797,-1.8011,-1.8042,-1.8062,-1.8082,-1.8118,-1.8162,-1.8143,-1.816,-1.8154,-1.8184,-1.8249,-1.816,-1.816,-1.8178,-1.8326,-1.8344,-1.8357,-1.8239,-1.8241,-1.8242,-1.8326,0,-1.7947,-1.802,-1.8015,-1.8084,-1.8118,-1.8097,-1.8133,-1.815,-1.8154,-1.8183,-1.8187,-1.822,-1.8191,-1.8202,-1.823,-1.8236,-1.828,-1.8229,-1.8273,-1.8274,-1.8272,-1.8371,-1.839,-1.8468,-1.8336,-1.8338,-1.8339,0,-1.805,-1.8075,-1.8148,-1.8165,-1.8179,-1.8212,-1.8241,-1.8268,-1.8287,-1.8288,-1.8306,-1.8295,-1.8337,-1.8299,-1.8356,-1.8322,-1.8339,-1.8344,-1.8347,-1.8354,-1.8313,-1.8383,-1.8492,-1.8505,-1.8356,-1.8354,-1.8353,0,-1.8121,-1.8173,-1.8223,-1.8235,-1.8256,-1.828,-1.829,-1.8306,-1.8326,-1.835,-1.8362,-1.839,-1.8407,-1.8429,-1.8426,-1.8398,-1.8484,-1.8446,-1.8487,-1.8488,-1.8509,-1.8509,-1.8626,-1.8515,-1.8515,-1.8515,-1.8514,0,-1.8212,-1.8258,-1.8256,-1.8287,-1.8338,-1.833,-1.838,-1.8387,-1.8402,-1.8434,-1.8417,-1.8447,-1.844,-1.847,-1.8467,-1.8516,-1.8522,-1.8525,-1.8524,-1.8528,-1.8529,-1.8542,-1.8537,-1.8518,-1.8517,-1.8516,-1.8516,0,-1.8302,-1.8302,-1.8356,-1.8371,-1.8376,-1.8413,-1.8426,-1.8455,-1.8457,-1.8498,-1.8507,-1.851,-1.8545,-1.8543,-1.8581,-1.8579,-1.864,-1.8632,-1.8635,-1.8634,-1.8676,-1.8674,-1.8809,-1.8827,-1.8702,-1.8703,-1.8704,0,-1.8362,-1.8396,-1.8415,-1.8436,-1.8448,-1.8481,-1.8501,-1.8494,-1.8515,-1.8539,-1.8566,-1.8598,-1.8625,-1.868,-1.8686,-1.8715,-1.8709,-1.8754,-1.8714,-1.8717,-1.8713,-1.8713,-1.8717,-1.8764,-1.8765,-1.8766,-1.8767,0,-1.8468,-1.8467,-1.8496,-1.8526,-1.855,-1.8573,-1.8593,-1.8611,-1.8606,-1.8631,-1.8666,-1.8687,-1.8726,-1.8759,-1.8787,-1.8797,-1.8782,-1.8779,-1.8791,-1.8797,-1.8799,-1.8801,-1.866,-1.8777,-1.8776,-1.8775,-1.8775,-1.8774,-1.8547,-1.8577,-1.8596,-1.8629,-1.8644,-1.8664,-1.8693,-1.8698,-1.8728,-1.8761,-1.8754,-1.8794,-1.8811,-1.8847,-1.8859,-1.889,-1.8874,-1.889,-1.8895,-1.89,-1.8906,-1.8791,-1.8895,-1.8895,-1.8894,-1.8894,-1.8894,0,-1.8655,-1.8666,-1.8696,-1.8727,-1.8753,-1.8735,-1.8757,-1.8781,-1.8816,-1.8834,-1.886,-1.8901,-1.8933,-1.894,-1.8971,-1.8994,-1.8988,-1.9003,-1.9003,-1.9006,-1.8917,-1.8906,-1.9007,-1.9007,-1.9007,-1.9007,-1.9007,-1.9007,-1.8715,-1.8767,-1.8767,-1.8825,-1.8835,-1.8875,-1.8889,-1.8908,-1.8922,-1.8969,-1.8995,-1.9,-1.9013,-1.9044,-1.9073,-1.9074,-1.9087,-1.9106,-1.9104,-1.9023,-1.9011,-1.9001,-1.899,-1.9108,-1.9108,-1.919,-1.9191,-1.9192]}]]